Weather History for Hamilton, OH

Change the Weather History Date:

Tuesday, June 10, 2014

  Actual Average (KCVG) Record (KCVG)
Temperature  
Mean Temperature 70 °F 71 °F  
Max Temperature 79 °F 81 °F 97 °F (1914)
Min Temperature 62 °F 61 °F 40 °F (1977)
Degree Days  
Heating Degree Days 0 1  
Month to date heating degree days 11  
Since 1 June heating degree days 11  
Since 1 July heating degree days 4971  
Cooling Degree Days 5 6  
Month to date cooling degree days 55  
Year to date cooling degree days 149  
Since 1 June cooling degree days 55  
Growing Degree Days 20 (Base 50)    
Moisture  
Dew Point 65 °F    
Average Humidity 89    
Maximum Humidity 96    
Minimum Humidity 68    
Precipitation  
Precipitation 0.64 in 0.14 in 3.40 in (2011)
Month to date precipitation 1.50  
Year to date precipitation 20.09  
Snow  
Snow 0.00 in 0.00 in 0.00 in ()
Month to date snowfall 0.0  
Since 1 June snowfall 0.0  
Since 1 July snowfall 22.1  
Snow Depth -    
Sea Level Pressure  
Sea Level Pressure 29.89 in    
Wind  
Wind Speed 3 mph (East)    
Max Wind Speed 10 mph    
Max Gust Speed -    
Visibility 5 miles    
Events Fog , Rain , Thunderstorm    
T = Trace of Precipitation, MM = Missing Value Source: NWS Daily Summary

Daily Weather History Graph

Daily Weather History Graph

Search for Another Location

Airport:

Trip Planner

Search our weather history database for the weather conditions in past years. The results will help you decide how hot, cold, wet, or windy it might be!

Date:

Astronomy

Jun. 10, 2014 Rise Set
Actual Time 6:10 AM EDT 9:04 PM EDT
Civil Twilight 5:38 AM EDT 9:36 PM EDT
Nautical Twilight 4:58 AM EDT 10:17 PM EDT
Astronomical Twilight 4:11 AM EDT 11:04 PM EDT
Moon 6:29 PM EDT (6/10) 4:15 AM EDT (6/10)
Length of Visible Light 15h 57m
Length of Day
14h 53m
Waxing Gibbous, 92% of the Moon is Illuminated
Jun 10
Waxing Gibbous
Jun 13
Full
Jun 19
Last Quarter
Jun 27
New
Jul 5
First Quarter

Hourly Weather History & Observations

Time (EDT) Temp. Dew Point Humidity Pressure Visibility Wind Dir Wind Speed Gust Speed Precip Events Conditions
12:53 AM 62.1 °F 60.1 °F 93% 29.92 in 10.0 mi Calm Calm - N/A   Clear
1:53 AM 62.1 °F 60.1 °F 93% 29.92 in 9.0 mi Calm Calm - N/A   Clear
2:53 AM 62.1 °F 60.1 °F 93% 29.90 in 8.0 mi Calm Calm - N/A   Clear
3:53 AM 63.0 °F 60.1 °F 90% 29.89 in 8.0 mi Calm Calm - N/A   Clear
4:53 AM 63.0 °F 61.0 °F 93% 29.89 in 7.0 mi Calm Calm - N/A   Overcast
5:53 AM 64.0 °F 61.0 °F 90% 29.88 in 8.0 mi East 3.5 mph - 0.01 in Rain Light Rain
6:53 AM 64.0 °F 62.1 °F 93% 29.88 in 5.0 mi East 3.5 mph - 0.02 in   Mostly Cloudy
7:35 AM 64.0 °F 63.0 °F 96% 29.91 in 1.8 mi Calm Calm - 0.02 in Rain Rain
7:42 AM 64.0 °F 62.1 °F 93% 29.91 in 1.2 mi Calm Calm - 0.05 in Rain Rain
7:53 AM 64.0 °F 62.1 °F 93% 29.90 in 1.5 mi Calm Calm - 0.08 in Rain Rain
8:04 AM 64.0 °F 62.1 °F 93% 29.91 in 2.0 mi NW 4.6 mph - 0.02 in Rain Light Rain
8:14 AM 64.0 °F 63.0 °F 96% 29.92 in 3.0 mi Calm Calm - 0.02 in   Overcast
8:40 AM 64.0 °F 63.0 °F 96% 29.93 in 1.8 mi Calm Calm - 0.03 in Rain Rain
8:53 AM 64.0 °F 63.0 °F 96% 29.92 in 2.5 mi East 3.5 mph - 0.04 in Rain Light Rain
9:06 AM 64.9 °F 63.0 °F 93% 29.92 in 1.8 mi ENE 4.6 mph - 0.02 in Rain Light Rain
9:25 AM 64.0 °F 62.1 °F 93% 29.92 in 2.0 mi NE 5.8 mph - 0.04 in Rain Light Rain
9:39 AM 64.9 °F 63.0 °F 93% 29.92 in 1.5 mi NE 5.8 mph - 0.05 in Rain Light Rain
10:37 AM 66.0 °F 63.0 °F 90% 29.93 in 3.0 mi East 5.8 mph - 0.00 in Rain Light Rain
10:51 AM 66.2 °F 64.4 °F 94% 29.93 in 6.0 mi East 8.1 mph - 0.00 in   Overcast
11:25 AM 66.9 °F 63.0 °F 87% 29.93 in 10.0 mi East 10.4 mph - N/A   Overcast
11:35 AM 66.9 °F 63.0 °F 87% 29.93 in 10.0 mi East 8.1 mph - N/A   Overcast
11:53 AM 68.0 °F 63.0 °F 84% 29.93 in 10.0 mi East 9.2 mph - N/A   Overcast
12:53 PM 70.0 °F 64.0 °F 81% 29.91 in 7.0 mi East 6.9 mph - N/A   Overcast
1:53 PM 70.0 °F 64.0 °F 81% 29.91 in 6.0 mi ESE 5.8 mph - N/A   Haze
3:12 PM 73.0 °F 66.0 °F 79% 29.90 in 7.0 mi Variable 3.5 mph - N/A   Scattered Clouds
3:53 PM 75.9 °F 66.9 °F 74% 29.87 in 8.0 mi East 5.8 mph - N/A   Scattered Clouds
4:34 PM 77.0 °F 66.9 °F 71% 29.87 in 9.0 mi East 5.8 mph - N/A   Mostly Cloudy
4:41 PM 78.1 °F 66.9 °F 68% 29.86 in 9.0 mi East 4.6 mph - N/A   Mostly Cloudy
5:53 PM 77.0 °F 68.0 °F 74% 29.84 in 10.0 mi East 8.1 mph - N/A   Partly Cloudy
6:50 PM 73.4 °F 69.8 °F 88% 29.85 in 6.0 mi NE 3.5 mph - 0.01 in Rain , Thunderstorm Light Rain
6:53 PM 73.9 °F 69.1 °F 85% 29.83 in 5.0 mi NE 4.6 mph - 0.01 in Rain , Thunderstorm Light Rain
7:12 PM 73.0 °F 70.0 °F 90% 29.86 in 3.0 mi Calm Calm - 0.03 in Rain , Thunderstorm Thunderstorms and Rain
7:17 PM 73.0 °F 70.0 °F 90% 29.86 in 1.8 mi Calm Calm - 0.05 in Rain , Thunderstorm Thunderstorms and Rain
7:26 PM 72.0 °F 70.0 °F 93% 29.86 in 0.8 mi Calm Calm - 0.15 in Rain , Thunderstorm Heavy Thunderstorms and Rain
7:36 PM 72.0 °F 70.0 °F 93% 29.86 in 1.0 mi Calm Calm - 0.21 in Rain , Thunderstorm Heavy Rain
7:43 PM 72.0 °F 70.0 °F 93% 29.85 in 0.5 mi Calm Calm - 0.28 in Fog , Rain , Thunderstorm Heavy Rain
7:53 PM 71.1 °F 69.1 °F 93% 29.83 in 1.5 mi East 8.1 mph - 0.32 in Rain , Thunderstorm Rain
7:57 PM 70.0 °F 68.0 °F 93% 29.84 in 3.0 mi East 9.2 mph - 0.01 in Rain , Thunderstorm Rain
8:02 PM 69.1 °F 66.9 °F 93% 29.84 in 5.0 mi East 9.2 mph - 0.02 in Rain , Thunderstorm Rain
8:17 PM 69.1 °F 66.9 °F 93% 29.83 in 4.0 mi East 6.9 mph - 0.07 in Rain Rain
8:53 PM 69.1 °F 66.9 °F 93% 29.83 in 5.0 mi Calm Calm - 0.15 in Rain Light Rain
9:53 PM 69.1 °F 66.9 °F 93% 29.82 in 10.0 mi ESE 4.6 mph - 0.01 in   Overcast